Weather Service Report


758 
ASUS43 KDMX 260207
RWRIA 

WEATHER ROUNDUP FOR IOWA
NATIONAL WEATHER SERVICE DES MOINES IA
800 PM CST TUE NOV 25 2014

NOTE: "FAIR" INDICATES FEW OR NO CLOUDS BELOW 12,000 FEET WITH NO
SIGNIFICANT WEATHER AND/OR OBSTRUCTIONS TO VISIBILITY.

* - THESE STATIONS ARE NOT NWS STATIONS...THUS NOT UNDER NWS
QUALITY CONTROL.  THEY ALSO DO NOT REPORT WEATHER SUCH 
AS PRECIPITATION OR FOG.  

IAZ001>003-012>014-020>022-031>034-043>046-260300-
   NORTHWEST IOWA
  
CITY           SKY/WX    TMP DP  RH WIND       PRES   REMARKS
CARROLL *      MOCLDY    30  19  64 SE13      29.96S WCI  20          
CHEROKEE *     CLOUDY    32  19  59 S8        29.91F WCI  25          
DENISON *      CLOUDY    34  19  55 S16       29.90F WCI  23          
LE MARS *      CLOUDY    34  23  64 S7        29.89S WCI  28          
ORANGE CITY *  CLOUDY    34  21  60 S9        29.87S WCI  26          
SHELDON *      CLOUDY    32  21  64 SE16      29.87F WCI  21          
SIOUX CITY     LGT RAIN  37  26  64 SE9       29.89S WCI  30          
SPENCER        CLOUDY    31  17  56 SE14      29.92S WCI  21          
STORM LAKE *   CLOUDY    30  19  64 SE16      29.92F WCI  19          
$$
 
IAZ055>058-069>071-079>083-090>094-260300-
   SOUTHWEST IOWA
  
CITY           SKY/WX    TMP DP  RH WIND       PRES   REMARKS
ATLANTIC *     CLOUDY    34  19  55 S10       29.96F WCI  26          
AUDUBON *      CLEAR     30  18  59 S8        29.96F WCI  23          
CLARINDA *     CLOUDY    36  19  51 S10       30.01F WCI  28          
COUNCIL BLFS * CLOUDY    36  23  60 S14       29.91F WCI  27          
CRESTON *      CLEAR     28  19  69 SE10      30.00F WCI  19          
HARLAN  *      CLOUDY    34  21  60 S13       29.97F WCI  25          
LAMONI         MOCLDY    30  16  56 S7        30.04S WCI  23          
RED OAK *      CLOUDY    36  21  55 S9G20     29.97F WCI  29          
SHENANDOAH *   MOCLDY    36  21  55 SE13G20   29.97F WCI  27          
$$
 
IAZ047>049-059>061-072>074-084-260300-
   CENTRAL IOWA
  
CITY           SKY/WX    TMP DP  RH WIND       PRES   REMARKS
AMES           PTCLDY    25  14  63 SE7       30.04S WCI  17          
ANKENY *       CLEAR     27  14  59 SE3       30.05S                  
CHARITON *     MOCLDY    28  16  59 S9        30.06S WCI  20          
DES MOINES     PTCLDY    30  12  47 SE10      30.04F WCI  21          
GRINNELL*      CLEAR     23  18  80 SE7       30.07S WCI  15          
KNOXVILLE *    CLEAR     27  14  59 SE9       30.05S WCI  17          
MARSHALLTOWN   PTCLDY    21  15  78 SE9       30.05F WCI  11          
PELLA *        PTCLDY    27  18  69 SE5       30.08F WCI  21          
PERRY *          N/A     30  19  64 SE10      30.00F WCI  21          
$$
 
IAZ004>006-015-016-023>025-035-036-260300-
   NORTH CENTRAL IOWA
  
CITY           SKY/WX    TMP DP  RH WIND       PRES   REMARKS
ALGONA *       PTCLDY    28  16  59 SE15G22   29.97F WCI  17          
CLARION *      CLEAR     25  19  80 SE14      30.00F WCI  13          
ESTHERVILLE    MOCLDY    26  15  63 S14       29.94S WCI  14          
FORT DODGE *   MOCLDY    28  12  50 SE8       29.99F WCI  20          
MASON CITY     PTCLDY    20  15  81 SE12      30.03S WCI   8          
FOREST CITY *  CLEAR     25  19  80 SE10      30.01R WCI  15          
IOWA FALLS *     N/A     23  18  80 SE9       30.04S WCI  13          
$$

IAZ007>011-017>019-026>030-037>042-050>054-066-260300-
   NORTHEAST IOWA
  
CITY           SKY/WX    TMP DP  RH WIND       PRES   REMARKS
CEDAR RAPIDS   CLEAR     19  16  88 SE5       30.10S WCI  12          
CHARLES CITY * CLOUDY    19  14  79 SE10      30.06S WCI   8          
CLINTON *      CLEAR     14   9  79 SE7       30.17R WCI   4          
DECORAH *      PTCLDY    16  10  79 S5        30.07R WCI   9          
DUBUQUE        CLEAR     15  12  88 S3        30.10S                  
MONTICELLO *   CLEAR     14  12  92 CALM      30.11S                  
OELWEIN *      CLEAR     16  12  86 S5        30.09S WCI   9          
WATERLOO         N/A     16  13  88 SE6       30.07F WCI   7          
$$
 
IAZ064-065-067-068-078-260300-
   EAST CENTRAL IOWA
  
CITY           SKY/WX    TMP DP  RH WIND       PRES   REMARKS
DAVENPORT      CLEAR     16  12  84 SE6       30.15R WCI   7          
IOWA CITY      CLEAR     20  17  88 SE3       30.14R                  
MT. PLEASANT * CLEAR     19  18  93 SE7       30.13S WCI  10          
MUSCATINE *    CLEAR     18  16  93 CALM      30.15F                  
QUAD CITIES    CLEAR     15  12  88 E3        30.15S                  
$$
 
IAZ062-063-075>077-085>089-095>099-260300-
   SOUTHEAST IOWA
  
CITY           SKY/WX    TMP DP  RH WIND       PRES   REMARKS
BURLINGTON     CLEAR     25  20  81 E6        30.14S WCI  18          
FAIRFIELD *    CLEAR     23  18  80 SE6       30.11S WCI  16          
FORT MADISON * CLEAR     27  23  86 E5        30.14S WCI  21          
KEOKUK *       CLEAR     25  23  93 E6        30.13S WCI  18          
OSKALOOSA *      N/A     23  18  80 SE8       30.09S WCI  14          
CENTERVILLE *  CLEAR     25  18  74 SE6       30.09S WCI  18          
OTTUMWA        CLEAR     24  18  77 S5        30.09S WCI  18          
WASHINGTON *   CLEAR     21  21 100 SE7       30.11F WCI  13          
$$

ABBREVIATIONS USED IN REMARKS
   TC - TEMPERATURES IN CELSIUS
  WCI - WIND CHILL INDEX
   HX - HEAT INDEX
  VSB - VISIBILITY  
$$


Return to Home page


Western Regional Climate Center, wrcc@dri.edu